Stations météo

réclame
Mon MeteoGroup
Bilbao/Aeropuerto, Espagne (8025): Température de l'air & dewpoint: 12.01.2019 13:00:00 - 18.01.2019 13:00:00 (CET)Bilbao/Aeropuerto, Espagne (8025): Vitesse du vent: 12.01.2019 13:00:00 - 18.01.2019 13:00:00 (CET)Bilbao/Aeropuerto, Espagne (8025): Direction du vent: 12.01.2019 13:00:00 - 18.01.2019 13:00:00 (CET)Bilbao/Aeropuerto, Espagne (8025): reduced air pressure: 12.01.2019 13:00:00 - 18.01.2019 13:00:00 (CET)Bilbao/Aeropuerto, Espagne (8025): visibility: 12.01.2019 13:00:00 - 18.01.2019 13:00:00 (CET)
Date & Time tt [°C] td [°C] ff [km/h] ff [knt] dd ppp [hPa] vv [km]
18.01.2019 13:00:00 7,9 6,4 4 2 SE 1020,2 20
18.01.2019 12:00:00 7,2 6,6 4 2 ESE 1021,0 -
18.01.2019 11:00:00 6,4 5,8 8 4 E 1021,1 -
18.01.2019 10:00:00 5,7 5,3 8 4 E 1020,6 15
18.01.2019 09:00:00 5,3 4,9 5 3 SE 1020,5 -
18.01.2019 08:00:00 4,9 4,6 5 3 ESE 1020,3 -
18.01.2019 07:00:00 5,3 5,2 5 3 E 1020,4 15
18.01.2019 06:00:00 4,9 4,8 5 3 E 1020,8 -
18.01.2019 05:00:00 4,4 4,3 5 3 E 1021,3 -
18.01.2019 04:00:00 4,2 3,9 5 3 E 1021,9 -
18.01.2019 03:00:00 4,9 4,6 5 3 E 1022,4 -
18.01.2019 02:00:00 5,8 5,5 8 4 E 1022,5 -
18.01.2019 01:00:00 6,5 5,9 2 1 SE 1022,9 -
18.01.2019 00:00:00 6,4 6,0 4 2 E 1023,4 -
17.01.2019 23:00:00 6,5 6,1 8 4 E 1023,3 -
17.01.2019 22:00:00 6,4 5,8 8 4 SSE 1023,0 15
17.01.2019 21:00:00 7,0 6,1 4 2 ESE 1022,6 -
17.01.2019 20:00:00 7,2 6,5 9 5 SE 1022,7 -
17.01.2019 19:00:00 7,8 6,4 8 4 WNW 1022,3 15
17.01.2019 18:00:00 7,9 6,0 5 3 W 1021,7 -
17.01.2019 17:00:00 10,1 5,2 18 10 WNW 1021,3 -
17.01.2019 16:00:00 10,5 5,2 15 8 WNW 1021,1 25
17.01.2019 15:00:00 10,9 6,0 15 8 WNW 1021,1 -
17.01.2019 14:00:00 9,3 5,8 18 10 NW 1021,4 -
17.01.2019 13:00:00 10,4 6,1 22 12 NW 1021,4 25
17.01.2019 12:00:00 8,8 6,2 18 10 NNW 1022,2 -
17.01.2019 11:00:00 8,7 7,9 5 3 S 1022,0 -
17.01.2019 10:00:00 6,5 6,2 8 4 E 1021,3 20
17.01.2019 09:00:00 6,2 5,9 5 3 ESE 1020,8 -
17.01.2019 08:00:00 6,7 6,4 5 3 E 1020,3 -
17.01.2019 07:00:00 7,3 6,9 4 2 NNE 1019,9 12
17.01.2019 06:00:00 7,1 6,8 4 2 ENE 1019,5 -
17.01.2019 05:00:00 6,9 6,5 8 4 ESE 1019,1 -
17.01.2019 04:00:00 7,2 6,6 9 5 NE 1019,2 -
17.01.2019 03:00:00 7,3 6,1 8 4 SW 1018,9 -
17.01.2019 02:00:00 8,7 4,5 8 4 WSW 1018,3 -
17.01.2019 01:00:00 9,1 3,5 8 4 SSW 1018,3 -
17.01.2019 00:00:00 9,0 3,3 4 2 SW 1018,3 -
16.01.2019 23:00:00 8,7 3,8 8 4 S 1018,4 -
16.01.2019 22:00:00 9,6 3,8 8 4 SSE 1018,3 20
16.01.2019 21:00:00 10,3 2,7 18 10 SW 1018,1 -
16.01.2019 20:00:00 10,6 2,7 4 2 SSE 1017,6 -
16.01.2019 19:00:00 11,6 2,6 11 6 WSW 1017,1 20
16.01.2019 18:00:00 12,3 3,0 15 8 WSW 1016,7 -
16.01.2019 17:00:00 13,9 3,0 16 9 WSW 1016,4 -
16.01.2019 16:00:00 14,5 3,4 8 4 W 1016,2 30
16.01.2019 15:00:00 14,4 2,5 11 6 WSW 1016,3 -
16.01.2019 14:00:00 13,9 3,4 9 5 NW 1016,7 -
16.01.2019 13:00:00 13,5 4,2 2 1 NW 1017,3 25
16.01.2019 12:00:00 12,1 4,6 4 2 W 1018,2 -
16.01.2019 11:00:00 10,1 3,6 2 1 WNW 1018,2 -
16.01.2019 10:00:00 6,9 5,2 2 1 S 1017,8 20
16.01.2019 09:00:00 4,2 2,5 4 2 E 1017,2 -
16.01.2019 08:00:00 4,9 2,9 5 3 ESE 1016,9 -
16.01.2019 07:00:00 3,9 2,6 0 0 N 1016,6 15
16.01.2019 06:00:00 4,6 2,4 5 3 E 1016,4 -
16.01.2019 05:00:00 4,4 3,1 4 2 E 1016,6 -
16.01.2019 04:00:00 3,2 3,2 4 2 ENE 1017,4 -
16.01.2019 03:00:00 2,9 2,9 2 1 E 1017,5 -
16.01.2019 02:00:00 1,9 1,9 8 4 ESE 1017,8 -
16.01.2019 01:00:00 3,2 3,1 8 4 E 1018,4 -
16.01.2019 00:00:00 2,8 2,5 8 4 E 1019,0 -
15.01.2019 23:00:00 3,7 3,3 8 4 ESE 1019,4 -
15.01.2019 22:00:00 4,4 4,0 8 4 ESE 1019,5 15
15.01.2019 21:00:00 5,1 4,5 4 2 ESE 1019,6 -
15.01.2019 20:00:00 6,4 5,3 4 2 ESE 1019,7 -
15.01.2019 19:00:00 8,1 6,2 4 2 ESE 1019,4 15
15.01.2019 18:00:00 9,7 6,5 5 3 ESE 1019,2 -
15.01.2019 17:00:00 12,5 6,7 8 4 SSE 1019,1 -
15.01.2019 16:00:00 12,6 6,7 9 5 ESE 1019,6 20
15.01.2019 15:00:00 12,3 6,2 8 4 SE 1020,4 -
15.01.2019 14:00:00 10,2 6,2 8 4 ESE 1021,5 -
15.01.2019 13:00:00 10,5 5,9 11 6 ESE 1022,6 20
15.01.2019 12:00:00 10,3 6,8 11 6 SE 1023,9 -
15.01.2019 11:00:00 9,6 8,8 5 3 SE 1024,3 -
15.01.2019 10:00:00 9,0 8,8 4 2 E 1024,3 15
15.01.2019 09:00:00 8,8 8,7 5 3 E 1024,0 -
15.01.2019 08:00:00 8,7 8,7 0 0 N 1024,1 -
15.01.2019 07:00:00 8,9 8,9 5 3 SE 1024,2 2,0
15.01.2019 06:00:00 8,9 8,9 4 2 E 1024,4 -
15.01.2019 05:00:00 9,0 9,0 5 3 NE 1024,9 -
15.01.2019 04:00:00 9,2 9,2 0 0 N 1025,6 -
15.01.2019 03:00:00 9,3 9,3 0 0 N 1025,9 -
15.01.2019 02:00:00 9,2 9,2 4 2 S 1026,2 -
15.01.2019 01:00:00 9,3 9,3 2 1 WNW 1026,4 -
15.01.2019 00:00:00 9,4 9,3 0 0 N 1026,9 -
14.01.2019 23:00:00 9,5 9,4 0 0 N 1026,8 -
14.01.2019 22:00:00 9,4 9,2 5 3 NE 1026,9 12
14.01.2019 21:00:00 9,5 9,2 0 0 N 1027,0 -
14.01.2019 20:00:00 9,8 9,5 4 2 W 1026,9 -
14.01.2019 19:00:00 9,7 9,2 5 3 W 1027,1 8
14.01.2019 18:00:00 10,2 9,4 13 7 NW 1027,0 -
14.01.2019 17:00:00 11,0 9,1 11 6 WNW 1026,9 -
14.01.2019 16:00:00 11,7 9,0 13 7 NNW 1026,9 15
14.01.2019 15:00:00 12,4 9,1 11 6 WNW 1026,8 -
14.01.2019 14:00:00 11,5 9,5 16 9 NW 1027,3 -
14.01.2019 13:00:00 11,2 10,6 9 5 WNW 1028,0 12
14.01.2019 12:00:00 10,3 9,5 5 3 WNW 1028,7 -
14.01.2019 11:00:00 9,7 9,1 4 2 WSW 1028,7 -
14.01.2019 10:00:00 10,0 8,4 18 10 NW 1028,4 6
14.01.2019 09:00:00 10,0 7,6 8 4 WNW 1027,8 -
14.01.2019 08:00:00 10,0 7,6 13 7 NW 1027,6 -
14.01.2019 07:00:00 10,6 6,9 9 5 W 1027,2 15
14.01.2019 06:00:00 9,9 7,5 9 5 WNW 1027,4 -
14.01.2019 05:00:00 10,2 7,1 0 0 N 1027,7 -
14.01.2019 04:00:00 10,7 7,2 4 2 W 1028,0 -
14.01.2019 03:00:00 10,8 7,7 13 7 WNW 1028,3 -
14.01.2019 02:00:00 9,1 8,3 4 2 E 1028,8 -
14.01.2019 01:00:00 9,2 8,4 5 3 SE 1029,3 -
14.01.2019 00:00:00 9,7 8,3 0 0 N 1029,6 -
13.01.2019 23:00:00 10,1 8,0 8 4 NW 1029,8 -
13.01.2019 22:00:00 10,5 6,8 4 2 W 1029,9 15
13.01.2019 21:00:00 10,5 6,8 5 3 W 1029,7 -
13.01.2019 20:00:00 10,5 6,8 8 4 WNW 1029,8 -
13.01.2019 19:00:00 10,9 7,2 9 5 WNW 1029,7 15
13.01.2019 18:00:00 11,5 6,6 18 10 NW 1029,9 -
13.01.2019 17:00:00 12,0 7,4 11 6 NW 1029,7 -
13.01.2019 16:00:00 12,1 7,7 11 6 NNW 1029,9 25
13.01.2019 15:00:00 12,1 7,6 2 1 W 1030,4 -
13.01.2019 14:00:00 11,4 7,9 5 3 WSW 1031,2 -
13.01.2019 13:00:00 10,4 8,3 5 3 SE 1031,9 20
13.01.2019 12:00:00 9,5 8,4 5 3 ESE 1032,8 -
13.01.2019 11:00:00 8,3 7,9 5 3 ESE 1032,9 -
13.01.2019 10:00:00 7,5 7,2 8 4 E 1032,9 25
13.01.2019 09:00:00 7,0 6,9 8 4 E 1032,7 -
13.01.2019 08:00:00 6,9 6,8 8 4 E 1032,3 -
13.01.2019 07:00:00 6,8 6,8 5 3 E 1032,6 12
13.01.2019 06:00:00 6,6 6,6 5 3 E 1032,7 -
13.01.2019 05:00:00 6,5 6,5 5 3 E 1033,1 -
13.01.2019 04:00:00 6,5 6,4 5 3 E 1033,4 -
13.01.2019 03:00:00 6,6 6,5 5 3 E 1033,2 -
13.01.2019 02:00:00 6,6 6,5 4 2 E 1033,8 -
13.01.2019 01:00:00 6,7 6,6 5 3 ESE 1034,1 -
13.01.2019 00:00:00 7,0 6,7 5 3 E 1034,6 -
12.01.2019 23:00:00 7,5 7,2 4 2 ESE 1034,6 -
12.01.2019 22:00:00 7,6 7,3 8 4 E 1034,5 15
12.01.2019 21:00:00 7,8 7,5 5 3 ENE 1034,7 -
12.01.2019 20:00:00 7,8 7,5 2 1 SE 1034,5 -
12.01.2019 19:00:00 8,0 7,4 4 2 SE 1034,1 15
12.01.2019 18:00:00 8,5 7,6 0 0 N 1033,6 -
12.01.2019 17:00:00 9,2 6,9 8 4 NNE 1033,4 -
12.01.2019 16:00:00 9,3 8,2 4 2 ENE 1033,4 6
12.01.2019 15:00:00 9,3 8,4 9 5 NW 1033,4 -
12.01.2019 14:00:00 9,8 8,9 5 3 WNW 1033,5 -
12.01.2019 13:00:00 8,5 7,8 0 0 N 1034,0 6

tt = Température de l'air
td = dewpoint
ff = Vitesse du vent
dd = Direction du vent
ppp = reduced air pressure
vv = visibility

stations d'obs. à proximité